This is the latest recevied weather packets stored in our database for station/object KI4MRC. If no packets are shown the sender has not sent any weather packets the latest 10 day(s).
| Time | Temp. | Humidity | Pressure | Rain* | Wind** | Luminosity | Snow |
|---|---|---|---|---|---|---|---|
| 1777895325 | 22.22° C | 99% | 1014 hPa | 0 mm | - | 51 W/m² | - |
| 1777895023 | 21.67° C | 99% | 1014.1 hPa | 0 mm | - | 57 W/m² | - |
| 1777894719 | 21.67° C | 99% | 1014.2 hPa | 0 mm | - | 42 W/m² | - |
| 1777894416 | 21.67° C | 99% | 1013.9 hPa | 0 mm | - | 36 W/m² | - |
| 1777894114 | 21.67° C | 99% | 1013.6 hPa | 0 mm | - | 33 W/m² | - |
| 1777893811 | 21.67° C | 99% | 1013.8 hPa | 0 mm | - | 29 W/m² | - |
| 1777893507 | 21.67° C | 99% | 1013.6 hPa | 0 mm | - | 25 W/m² | - |
| 1777893203 | 21.67° C | 99% | 1013.4 hPa | 0 mm | - | 19 W/m² | - |
| 1777892900 | 21.67° C | 99% | 1013.4 hPa | 0 mm | - | 13 W/m² | - |
| 1777892597 | 21.67° C | 99% | 1013.3 hPa | 0 mm | - | 10 W/m² | - |
| 1777892292 | 21.67° C | 99% | 1013.7 hPa | 0 mm | - | 8 W/m² | - |
| 1777891988 | 21.67° C | 99% | 1013.4 hPa | 0 mm | - | 5 W/m² | - |
| 1777891687 | 21.67° C | 99% | 1013.6 hPa | 0 mm | - | 4 W/m² | - |
| 1777891382 | 21.67° C | 99% | 1013.7 hPa | 0 mm | - | 2 W/m² | - |
| 1777891078 | 21.67° C | 99% | 1013.6 hPa | 0 mm | - | 1 W/m² | - |
| 1777890772 | 21.67° C | 99% | 1013.5 hPa | 0 mm | - | 1 W/m² | - |
| 1777890469 | 21.67° C | 99% | 1013.4 hPa | 0 mm | - | 0 W/m² | - |
| 1777890165 | 21.67° C | 99% | 1013.3 hPa | 0 mm | - | 0 W/m² | - |
| 1777889862 | 21.67° C | 99% | 1013.3 hPa | 0 mm | - | 0 W/m² | - |
| 1777889559 | 21.67° C | 99% | 1013.3 hPa | 0 mm | - | 0 W/m² | - |
| 1777889257 | 21.67° C | 99% | 1013.4 hPa | 0 mm | - | 0 W/m² | - |
| 1777888954 | 21.67° C | 99% | 1013.5 hPa | 0 mm | - | 0 W/m² | - |
| 1777888651 | 21.67° C | 99% | 1013.6 hPa | 0 mm | - | 0 W/m² | - |
| 1777888347 | 22.22° C | 99% | 1013.5 hPa | 0 mm | - | 0 W/m² | - |
| 1777888044 | 22.22° C | 99% | 1013.4 hPa | 0 mm | - | 0 W/m² | - |
* Rain latest hour (hover to see other rain measurements)
** Current wind speed in m/s (hover to see current wind gust speed)